Flughafen Wetterinformationen

LTBA 212120Z 06012KT CAVOK 15/11 Q1017 NOSIG

VATSIM Feed

Card image cap

ATC Buchungen

Es wurde keine Position gebucht

Card image cap

Aktive Flugsicherung

Derzeit sind keine Fluglotsen Online

Blog

Read our latest news and get to know us better.